User: anonymous   Login
Location: Edinburgh
(55.9500°N, 3.1600°W)
Time: 18:25:06
(UTC+01:00)
Language:

SPROUT - Orbit

View from above orbital plane
View from above orbital plane
View from above satellite
View from above satellite

Ground track
Ground track

The orbit data is extracted from the following two-line orbital elements,

1 39770U 14029E   24147.36664892  .00130650  00000-0  30397-2 0  9993
2 39770  98.0090 297.7502 0009141 246.1031 113.9257 15.41761026544282
Epoch (UTC): 26 May 2024 08:47:58
Eccentricity: 0.0009141
inclination: 98.0090°
perigee height: 434 km
apogee height: 447 km
right ascension of ascending node: 297.7502°
argument of perigee: 246.1031°
revolutions per day: 15.41761026
mean anomaly at epoch: 113.9257°
orbit number at epoch: 54428

The dashed part of the orbit path shows where the satellite is in the earth's shadow,  

DLR